Regional Weather Roundup
Issued by NWS

Home | Current Version | Previous Version | Graphics & Text | Print | Product List | Glossary On
Versions: 1 2 3 4 5 6 7 8 9 10 11 12 13 14 15 16 17 18 19 20 21 22 23 24 25 26 27
000
ASUS45 KBOU 220707
RWRCO

WEATHER ROUNDUP FOR COLORADO
NATIONAL WEATHER SERVICE DENVER/BOULDER CO
100 AM MDT SUN OCT 22 2017

NOTE: "FAIR" INDICATES FEW OR NO CLOUDS BELOW 12000 FEET WITH NO
SIGNIFICANT WEATHER AND/OR OBSTRUCTIONS TO VISIBILITY.

COZ001>005-013-030-031-220800-
...NORTHWEST COLORADO...

CITY           SKY/WX    TMP DP  RH WIND       PRES   REMARKS
CRAIG          FAIR      26  21  81 CALM      30.34R
HAYDEN         FAIR      29  22  75 NE6       30.35R WCI  23
MEEKER         FAIR      29  24  82 CALM      30.35R
RABBIT EARS PA FAIR      19  18  93 W15G25    30.30R WCI   5
STEAMBOAT SPGS MOCLDY    29  24  81 NE5       30.33R WCI  24
WALDEN         NOT AVBL
$$

COZ006>008-011-220800-
...WEST CENTRAL VALLEYS...

CITY           SKY/WX    TMP DP  RH WIND       PRES   REMARKS
GRAND JUNCTION FAIR      38  13  35 E6        30.35R
MONTROSE       FAIR      34  18  52 SE10      30.40R WCI  26
EAGLE          FAIR      27  20  75 E3        30.39S
RIFLE          FAIR      32  24  72 SW3       30.37R
DELTA          FAIR      34  10  36 NE3       30.38R
NUCLA          FAIR      34   9  35 E9        30.42R WCI  26
$$

COZ017>023-064>068-220800-
...SOUTHWEST COLORADO...

CITY           SKY/WX    TMP DP  RH WIND       PRES   REMARKS
DURANGO        FAIR      28   7  41 CALM      30.34R
CORTEZ         FAIR      27  12  53 E5        30.37R WCI  22
PAGOSA SPRINGS FAIR      30   2  30 CALM      30.38R
TELLURIDE      FAIR      28  14  55 SE6       30.43R WCI  22
WOLF CREEK PAS FAIR      23   0  36 S9        30.47R WCI  13
$$

COZ009-010-012-014-032>034-037-058>063-220800-
...CENTRAL COLORADO...

CITY           SKY/WX    TMP DP  RH WIND       PRES   REMARKS
ASPEN          FAIR      23  19  85 SW7       30.38R WCI  15
BUENA VISTA    FAIR      35   9  33 NW9       30.28S WCI  28
COPPER MTN     FAIR      19  12  73 MISG      30.35R
BERTHOUD PASS  FAIR      14   5  67 NW51G63   30.21S WCI -11
COTTONWOOD PAS FAIR      36   9  32 W15G30    30.28F
GUNNISON       FAIR      23  15  71 NE3       30.39R
KREMMLING      FAIR      27  21  80 NE3       30.35R
LEADVILLE      FAIR      27   6  41 NW16G28   30.32R WCI  15
MONARCH PASS   FAIR      18   7  62 W46       30.43R WCI  -5
SALIDA         FAIR      37  10  32 NW9       30.34S
SUNLIGHT       FAIR      19  12  73 SW10G17   30.42S WCI   8
WILKERSON PASS FAIR      21   5  49 SW9       30.31R WCI  11
$$

COZ069>075-220800-
...SAN LUIS VALLEY/SANGRE DE CRISTO MOUNTAINS...

CITY           SKY/WX    TMP DP  RH WIND       PRES   REMARKS
ALAMOSA        FAIR      20   8  60 N3        30.33R
DEL NORTE      FAIR      25   4  40 W10       30.34R WCI  14
LA VETA PASS   FAIR      30   3  31 S28G41    30.38F WCI  16
SAGUACHE       FAIR      30  12  47 W9        30.35R WCI  22
$$

COZ035-036-038>040-220800-
...NORTHERN COLORADO FRONT RANGE...

CITY           SKY/WX    TMP DP  RH WIND       PRES   REMARKS
DENVER INTL AP FAIR      35  13  40 SW9       30.12F WCI  28
DMNS CITY PARK   N/A     40  11  30 SE6G12    30.13S
AURORA         CLEAR     35  13  39 S9        30.14S WCI  28
FRONT RANGE AP FAIR      34  18  51 S9        30.13F WCI  26
ERIE MUNI ARPT FAIR      34  19  54 S3        30.16F
BOULDER MUN AP FAIR      43  16  33 SW5       30.11S
CENTENNIAL     FAIR      36  10  34 S9        30.14F
BROOMFIELD     FAIR      45  14  29 W20G25    30.14S
FORT COLLINS   FAIR      33  21  61 VRB3      30.12S
LONGMONT       FAIR      32  22  66 W3        30.12S
$$

COZ041-046-047-076>085-087-088-220800-
...PIKES PEAK/PALMER DIVIDE AND SOUTHERN FOOTHILLS...

CITY           SKY/WX    TMP DP  RH WIND       PRES   REMARKS
COLO. SPRINGS  FAIR      37  10  32 SE6       30.19S
A. F. ACADEMY  FAIR      35   6  29 NE7       30.17F WCI  29
SCHRIEVER AFB  FAIR      34   9  35 SW6       30.20R WCI  29
CHEYENNE MTN   FAIR      40   2  20 CALM      30.14R
ELLICOTT         N/A    N/A N/A N/A CALM      30.18S
FALCON         FAIR      31   6  34 SW6       30.20S WCI  25
FORT CARSON    FAIR      30  11  44 CALM      30.17S
LIMON          FAIR      20  14  77 NW6       30.17S WCI  12
MONUMENT HILL  FAIR      28  10  47 SW9       30.20R WCI  20
CANON CITY     FAIR      41  10  28 NW9       30.18S
WALSENBURG     FAIR      41  12  30 SW7       30.20F
TRINIDAD       FAIR      33  25  72 W9        30.22S WCI  25
$$

COZ042>045-048>051-090-091-220800-
...NORTHEAST COLORADO...

CITY           SKY/WX    TMP DP  RH WIND       PRES   REMARKS
GREELEY ARPT   FAIR      29  23  78 NE6       30.12F WCI  23
AKRON          FAIR      32  17  54 SW6       30.12R WCI  26
BURLINGTON     FAIR      28  19  69 W10       30.15S WCI  19
WRAY           FAIR      32  21  64 W7        30.12R WCI  26
YUMA           FAIR      30  19  64 W7        30.11R WCI  23
STERLING       NOT AVBL
HOLYOKE        FAIR      45  19  36 NW9       30.11R
FORT MORGAN    FAIR      29  15  56 W7        30.13S WCI  22
$$

COZ086-089-092>099-220800-
...SOUTHEAST COLORADO...

CITY           SKY/WX    TMP DP  RH WIND       PRES   REMARKS
PUEBLO         FAIR      33  15  47 SW3       30.19S
LA JUNTA       FAIR      38  16  40 W8        30.20R
LAMAR          FAIR      29  16  58 S10       30.18R WCI  20
SPRINGFIELD      N/A     31  17  56 NW9       30.21R WCI  23
$$




USA.gov is the U.S. government's official web portal to all federal, state and local government web resources and services.